FW6002 Weather Reports


Display with metric or nautical units.
time (UTC)temp
F
wind
direction
speed
MPH
gust
MPH
rain 1hr
in
rain 24hr
in
rain mn
in
humidity
%
barometer
mb
20260902051055 85 78 2.0 6.0 0.00 0.00 0.00 62 1014.8
20260902050555 85 73 1.0 6.0 0.00 0.00 0.00 61 1014.7
20260902050110 85 93 1.0 5.0 0.00 0.00 0.00 62 1014.8
20260902045555 85 112 1.0 5.0 0.00 0.00 0.00 63 1014.7
20260902045055 83 130 1.0 5.0 0.00 0.00 0.00 65 1014.7
20260902044602 83 0 0.0 0.0 0.00 0.00 0.00 65 1014.6
20260902044056 84 0 0.0 0.0 0.00 0.00 0.00 64 1014.5
20260902043555 84 0 0.0 1.0 0.00 0.00 0.00 63 1014.4
20260902043121 85 0 0.0 1.0 0.00 0.00 0.00 62 1014.6
20260902042555 85 0 0.0 1.0 0.00 0.00 0.00 62 1014.4
20260902042056 85 95 0.0 1.0 0.00 0.00 0.00 61 1014.4
20260902041603 86 0 0.0 1.0 0.00 0.00 0.00 61 1014.4
20260902041055 86 0 0.0 1.0 0.00 0.00 0.00 60 1014.4
20260902040555 86 123 0.0 2.0 0.00 0.00 0.00 60 1014.4
20260902040105 86 0 0.0 2.0 0.00 0.00 0.00 60 1014.4
20260902035554 86 84 0.0 2.0 0.00 0.00 0.00 60 1014.4
20260902035054 86 0 0.0 2.0 0.00 0.00 0.00 60 1014.3
20260902034601 86 0 0.0 3.0 0.00 0.00 0.00 60 1014.4
20260902034054 86 0 0.0 3.0 0.00 0.00 0.00 60 1014.4
20260902033555 86 145 0.0 1.0 0.00 0.00 0.00 60 1014.4
20260902033103 86 0 0.0 1.0 0.00 0.00 0.00 60 1014.2
20260902032556 86 0 0.0 1.0 0.00 0.00 0.00 60 1014.1
20260902032056 86 0 0.0 0.0 0.00 0.00 0.00 60 1014.0
20260902031607 86 0 0.0 0.0 0.00 0.00 0.00 60 1014.2
20260902031055 87 0 0.0 0.0 0.00 0.00 0.00 59 1014.0
20260902030555 87 0 0.0 2.0 0.00 0.00 0.00 57 1013.9
20260902030100 87 0 0.0 2.0 0.00 0.00 0.00 57 1013.8
20260902025555 87 129 0.0 1.0 0.00 0.00 0.00 57 1013.9
20260902025055 87 0 0.0 2.0 0.00 0.00 0.00 57 1013.8
20260902024600 88 0 0.0 2.0 0.00 0.00 0.00 56 1013.6
20260902024054 88 0 0.0 2.0 0.00 0.00 0.00 56 1013.5
20260902023554 89 0 0.0 2.0 0.00 0.00 0.00 56 1013.5
20260902023115 89 0 0.0 2.0 0.00 0.00 0.00 56 1013.4
20260902022558 89 0 0.0 2.0 0.00 0.00 0.00 56 1013.4
20260902022055 89 66 0.0 2.0 0.00 0.00 0.00 56 1013.3
20260902021604 89 132 0.0 2.0 0.00 0.00 0.00 56 1013.3
20260902021055 89 48 0.0 2.0 0.00 0.00 0.00 56 1013.0
20260902020555 90 0 0.0 2.0 0.00 0.00 0.00 56 1013.0
20260902020105 90 0 0.0 3.0 0.00 0.00 0.00 56 1013.1
20260902015558 90 132 0.0 3.0 0.00 0.00 0.00 55 1012.9
20260902015056 90 0 0.0 2.0 0.00 0.00 0.00 55 1012.9
20260902014603 90 0 0.0 2.0 0.00 0.00 0.00 55 1012.9
20260902014055 90 0 0.0 2.0 0.00 0.00 0.00 55 1012.8
20260902013555 90 0 0.0 2.0 0.00 0.00 0.00 54 1012.9
20260902013116 91 104 1.0 2.0 0.00 0.00 0.00 53 1012.9
20260902012555 91 88 0.0 2.0 0.00 0.00 0.00 53 1012.7
20260902012055 91 163 1.0 2.0 0.00 0.00 0.00 52 1012.6
20260902011635 91 49 0.0 2.0 0.00 0.00 0.00 52 1012.7
20260902011055 92 80 0.0 2.0 0.00 0.00 0.00 51 1012.5
20260902010555 92 0 0.0 2.0 0.00 0.00 0.00 50 1012.5
20260902005555 92 0 0.0 2.0 0.00 0.00 0.00 48 1012.4
20260902005056 93 165 1.0 2.0 0.00 0.00 0.00 48 1012.4
20260902004609 93 215 0.0 2.0 0.00 0.00 0.00 48 1012.3
20260902004059 93 0 0.0 2.0 0.00 0.00 0.00 48 1012.3
20260902003558 93 152 0.0 2.0 0.00 0.00 0.00 48 1012.5
20260902003112 93 103 0.0 2.0 0.00 0.00 0.00 48 1012.7
20260902002557 93 88 0.0 2.0 0.00 0.00 0.00 47 1012.7
20260902002055 94 0 0.0 3.0 0.00 0.00 0.00 46 1012.7
20260902001605 94 175 0.0 3.0 0.00 0.00 0.00 46 1012.8
20260902001055 94 19 0.0 2.0 0.00 0.00 0.00 46 1012.8
20260902000555 94 0 0.0 3.0 0.00 0.00 0.00 45 1012.7
20260902000105 94 63 0.0 3.0 0.00 0.00 0.00 45 1012.7
20260901235556 94 290 1.0 3.0 0.00 0.00 0.00 45 1012.8
20260901235055 94 117 0.0 3.0 0.00 0.00 0.00 45 1012.9
20260901234610 94 161 1.0 3.0 0.00 0.00 0.00 46 1012.9
20260901234055 94 193 0.0 3.0 0.00 0.00 0.00 46 1012.9
20260901233555 94 67 1.0 4.0 0.00 0.00 0.00 46 1012.8
20260901233108 94 65 1.0 4.0 0.00 0.00 0.00 46 1012.9
20260901232555 94 75 1.0 4.0 0.00 0.00 0.00 47 1012.9
20260901232056 95 13 1.0 4.0 0.00 0.00 0.00 47 1012.8
20260901231615 95 134 1.0 4.0 0.00 0.00 0.00 45 1012.8
20260901231056 95 74 1.0 3.0 0.00 0.00 0.00 45 1012.9
20260901230557 95 198 0.0 5.0 0.00 0.00 0.00 44 1012.9
20260901230111 95 170 1.0 6.0 0.00 0.00 0.00 44 1012.8
20260901225555 96 101 1.0 6.0 0.00 0.00 0.00 43 1012.9
20260901225056 97 48 2.0 6.0 0.00 0.00 0.00 43 1012.8
20260901224605 98 126 2.0 5.0 0.00 0.00 0.00 42 1012.6
20260901224056 98 165 2.0 5.0 0.00 0.00 0.00 41 1012.7
20260901223558 97 192 1.0 5.0 0.00 0.00 0.00 41 1012.6
20260901223103 97 0 0.0 3.0 0.00 0.00 0.00 42 1012.7
20260901222554 96 0 0.0 0.0 0.00 0.00 0.00 44 1012.9
20260901222055 96 0 0.0 1.0 0.00 0.00 0.00 44 1012.9
20260901221625 96 0 0.0 3.0 0.00 0.00 0.00 44 1012.8
20260901221055 96 0 0.0 4.0 0.00 0.00 0.00 42 1012.8
20260901220556 97 0 0.0 4.0 0.00 0.00 0.00 42 1013.0
20260901220121 97 203 0.0 3.0 0.00 0.00 0.00 42 1013.1
20260901215556 97 0 1.0 3.0 0.00 0.00 0.00 42 1013.1
20260901215057 97 147 1.0 3.0 0.00 0.00 0.00 41 1013.1
20260901214604 97 74 0.0 4.0 0.00 0.00 0.00 42 1013.0
20260901214055 97 0 1.0 5.0 0.00 0.00 0.00 42 1013.0
20260901213555 97 82 1.0 6.0 0.00 0.00 0.00 41 1013.0
20260901213110 98 198 1.0 6.0 0.00 0.00 0.00 41 1013.0
20260901212555 98 119 1.0 5.0 0.00 0.00 0.00 41 1013.1
20260901212056 97 144 1.0 4.0 0.00 0.00 0.00 42 1013.0
20260901211559 97 43 1.0 4.0 0.00 0.00 0.00 41 1013.3
20260901211055 97 40 1.0 3.0 0.00 0.00 0.00 41 1013.2
20260901210556 97 208 1.0 4.0 0.00 0.00 0.00 41 1013.2
20260901210124 98 163 1.0 4.0 0.00 0.00 0.00 39 1013.3
20260901205559 99 36 1.0 4.0 0.00 0.00 0.00 39 1013.5
20260901205056 97 0 1.0 4.0 0.00 0.00 0.00 42 1013.4
20260901204624 96 95 0.0 5.0 0.00 0.00 0.00 42 1013.6
20260901204055 97 89 2.0 5.0 0.00 0.00 0.00 42 1013.8
20260901203558 97 184 1.0 4.0 0.00 0.00 0.00 42 1013.7
20260901203104 98 124 0.0 3.0 0.00 0.00 0.00 41 1013.7
20260901202556 99 53 1.0 4.0 0.00 0.00 0.00 39 1013.6
20260901202058 100 148 0.0 5.0 0.00 0.00 0.00 40 1013.6
20260901201603 98 0 0.0 7.0 0.00 0.00 0.00 41 1013.6
20260901201056 100 251 1.0 7.0 0.00 0.00 0.00 39 1013.9
20260901200555 98 167 1.0 7.0 0.00 0.00 0.00 43 1013.9
20260901200123 98 127 2.0 7.0 0.00 0.00 0.00 42 1014.0
20260901195556 99 201 2.0 7.0 0.00 0.00 0.00 40 1014.0
20260901195057 99 0 1.0 7.0 0.00 0.00 0.00 42 1014.1
20260901194612 97 53 1.0 5.0 0.00 0.00 0.00 42 1014.3
20260901194059 99 208 1.0 6.0 0.00 0.00 0.00 41 1014.2
20260901193556 101 66 1.0 6.0 0.00 0.00 0.00 39 1014.3
20260901193103 101 173 1.0 4.0 0.00 0.00 0.00 40 1014.3
20260901192559 100 0 1.0 4.0 0.00 0.00 0.00 39 1014.2
20260901192055 100 157 1.0 7.0 0.00 0.00 0.00 41 1014.4
20260901191638 99 205 1.0 7.0 0.00 0.00 0.00 41 1014.5
20260901191059 99 153 1.0 7.0 0.00 0.00 0.00 41 1014.6
20260901190555 100 196 2.0 6.0 0.00 0.00 0.00 40 1014.9
20260901190109 101 147 1.0 4.0 0.00 0.00 0.00 37 1014.8
20260901185559 100 317 1.0 7.0 0.00 0.00 0.00 42 1014.8
20260901185055 99 195 1.0 7.0 0.00 0.00 0.00 40 1015.0
20260901184605 99 173 1.0 6.0 0.00 0.00 0.00 40 1015.0
20260901184055 100 229 1.0 6.0 0.00 0.00 0.00 40 1014.9
20260901183557 99 0 0.0 4.0 0.00 0.00 0.00 41 1015.2
20260901183102 100 54 1.0 4.0 0.00 0.00 0.00 39 1015.4
20260901182558 100 0 1.0 5.0 0.00 0.00 0.00 41 1015.4
20260901182056 99 72 2.0 5.0 0.00 0.00 0.00 42 1015.5
20260901181619 99 200 1.0 5.0 0.00 0.00 0.00 41 1015.6
20260901181055 97 191 1.0 4.0 0.00 0.00 0.00 44 1015.7
20260901180555 96 197 1.0 6.0 0.00 0.00 0.00 42 1015.7
20260901180105 98 83 2.0 6.0 0.00 0.00 0.00 43 1015.8
20260901175557 98 154 2.0 5.0 0.00 0.00 0.00 42 1015.9
20260901175055 98 224 1.0 5.0 0.00 0.00 0.00 44 1015.9
20260901174601 99 49 1.0 4.0 0.00 0.00 0.00 43 1016.0
20260901174056 99 33 0.0 6.0 0.00 0.00 0.00 42 1016.0
20260901173555 97 132 0.0 6.0 0.00 0.00 0.00 47 1016.2
20260901173118 99 64 0.0 6.0 0.00 0.00 0.00 43 1016.3
20260901172556 98 167 1.0 6.0 0.00 0.00 0.00 44 1016.5
20260901172054 97 0 1.0 4.0 0.00 0.00 0.00 45 1016.4
20260901171606 97 221 1.0 4.0 0.00 0.00 0.00 45 1016.4
20260901171055 98 0 1.0 4.0 0.00 0.00 0.00 44 1016.5
20260901170556 97 0 1.0 4.0 0.00 0.00 0.00 45 1016.6
20260901170104 96 58 0.0 5.0 0.00 0.00 0.00 45 1016.6
20260901165556 97 92 2.0 5.0 0.00 0.00 0.00 46 1016.7
20260901165056 97 171 1.0 6.0 0.00 0.00 0.00 48 1016.8
20260901164618 96 40 1.0 6.0 0.00 0.00 0.00 46 1016.8
20260901164055 96 135 2.0 6.0 0.00 0.00 0.00 47 1016.8
20260901163555 97 0 0.0 5.0 0.00 0.00 0.00 48 1016.9
20260901163102 95 138 2.0 5.0 0.00 0.00 0.00 47 1016.8
20260901162555 96 174 1.0 4.0 0.00 0.00 0.00 48 1017.0
20260901162055 95 0 1.0 4.0 0.00 0.00 0.00 48 1017.0
20260901161602 94 0 1.0 4.0 0.00 0.00 0.00 50 1017.0
20260901161056 95 65 0.0 3.0 0.00 0.00 0.00 49 1017.1
20260901160555 95 149 0.0 3.0 0.00 0.00 0.00 50 1017.1
20260901160117 95 30 0.0 4.0 0.00 0.00 0.00 50 1016.9
20260901155556 95 5 0.0 4.0 0.00 0.00 0.00 51 1017.0
20260901155056 95 85 0.0 3.0 0.00 0.00 0.00 51 1017.0
20260901154600 93 0 1.0 3.0 0.00 0.00 0.00 52 1017.0
20260901154055 93 65 1.0 3.0 0.00 0.00 0.00 51 1016.9
20260901153556 93 32 0.0 4.0 0.00 0.00 0.00 53 1017.1
20260901153132 92 53 1.0 4.0 0.00 0.00 0.00 54 1017.1
20260901152556 92 81 1.0 4.0 0.00 0.00 0.00 55 1017.0
20260901152058 91 0 2.0 5.0 0.00 0.00 0.00 56 1017.1
20260901151608 90 62 1.0 5.0 0.00 0.00 0.00 57 1017.0
20260901151057 90 60 1.0 5.0 0.00 0.00 0.00 56 1017.0
20260901150555 90 63 1.0 3.0 0.00 0.00 0.00 57 1017.1
20260901150115 90 119 1.0 3.0 0.00 0.00 0.00 58 1017.2
20260901145557 89 0 0.0 3.0 0.00 0.00 0.00 61 1017.1
20260901145056 88 0 1.0 3.0 0.00 0.00 0.00 60 1017.1
20260901144608 88 0 0.0 3.0 0.00 0.00 0.00 62 1017.1
20260901144055 87 189 1.0 3.0 0.00 0.00 0.00 63 1017.2
20260901143555 87 169 0.0 3.0 0.00 0.00 0.00 62 1017.2
20260901143122 86 212 1.0 3.0 0.00 0.00 0.00 64 1017.3
20260901142555 85 187 0.0 2.0 0.00 0.00 0.00 66 1017.2
20260901142057 85 0 0.0 3.0 0.00 0.00 0.00 68 1017.3
20260901141623 84 0 0.0 3.0 0.00 0.00 0.00 68 1017.4
20260901141056 83 202 0.0 3.0 0.00 0.00 0.00 69 1017.3
20260901140555 83 82 1.0 3.0 0.00 0.00 0.00 69 1017.2
20260901140135 82 70 1.0 3.0 0.00 0.00 0.00 70 1017.1
20260901135600 81 49 1.0 3.0 0.00 0.00 0.00 72 1017.1
20260901135056 80 115 1.0 3.0 0.00 0.00 0.00 72 1017.2
20260901134604 80 0 0.0 2.0 0.00 0.00 0.00 73 1017.1
20260901134055 80 0 0.0 2.0 0.00 0.00 0.00 73 1017.2
20260901133557 80 0 0.0 2.0 0.00 0.00 0.00 73 1017.2
20260901133102 79 0 0.0 2.0 0.00 0.00 0.00 74 1017.1
20260901132557 79 63 0.0 2.0 0.00 0.00 0.00 75 1017.2
20260901132056 78 0 0.0 1.0 0.00 0.00 0.00 77 1017.1
20260901131612 78 0 0.0 1.0 0.00 0.00 0.00 78 1017.1
20260901131056 76 0 0.0 0.0 0.00 0.00 0.00 78 1017.1
20260901130556 75 0 0.0 0.0 0.00 0.00 0.00 79 1017.1
20260901130105 74 0 0.0 0.0 0.00 0.00 0.00 79 1017.1
20260901125555 74 0 0.0 0.0 0.00 0.00 0.00 80 1017.0
20260901125055 73 0 0.0 0.0 0.00 0.00 0.00 80 1016.8
20260901124601 73 0 0.0 0.0 0.00 0.00 0.00 80 1016.6
20260901124055 73 0 0.0 0.0 0.00 0.00 0.00 80 1016.7
20260901123558 73 0 0.0 0.0 0.00 0.00 0.00 79 1016.6
20260901123105 73 0 0.0 0.0 0.00 0.00 0.00 79 1016.6
20260901122555 73 0 0.0 0.0 0.00 0.00 0.00 79 1016.6
20260901122056 73 0 0.0 0.0 0.00 0.00 0.00 79 1016.4
20260901121607 73 0 0.0 0.0 0.00 0.00 0.00 79 1016.3
20260901121057 73 0 0.0 0.0 0.00 0.00 0.00 79 1016.3
20260901120555 73 0 0.0 0.0 0.00 0.00 0.00 79 1016.2
20260901120106 73 0 0.0 0.0 0.00 0.00 0.00 79 1016.3
20260901115556 73 0 0.0 0.0 0.00 0.00 0.00 79 1016.1
20260901115059 73 0 0.0 0.0 0.00 0.00 0.00 79 1016.2
20260901114601 73 0 0.0 0.0 0.00 0.00 0.00 78 1016.1
20260901114055 73 0 0.0 0.0 0.00 0.00 0.00 78 1016.3
20260901113555 74 0 0.0 0.0 0.00 0.00 0.00 77 1016.4
20260901113104 74 0 0.0 0.0 0.00 0.00 0.00 77 1016.3
20260901112556 74 0 0.0 0.0 0.00 0.00 0.00 77 1016.2
20260901112055 74 0 0.0 0.0 0.00 0.00 0.00 77 1016.3
20260901111602 74 0 0.0 0.0 0.00 0.00 0.00 77 1016.1
20260901111056 74 0 0.0 0.0 0.00 0.00 0.00 76 1016.2
20260901110555 74 0 0.0 0.0 0.00 0.00 0.00 76 1016.0
20260901105600 75 0 0.0 0.0 0.00 0.00 0.00 75 1016.0
20260901105058 75 0 0.0 0.0 0.00 0.00 0.00 74 1015.9
20260901104605 75 0 0.0 0.0 0.00 0.00 0.00 74 1016.0
20260901104055 75 0 0.0 0.0 0.00 0.00 0.00 75 1015.8
20260901103555 74 0 0.0 0.0 0.00 0.00 0.00 75 1015.9
20260901103108 74 0 0.0 0.0 0.00 0.00 0.00 75 1015.9
20260901102555 74 0 0.0 0.0 0.00 0.00 0.00 75 1016.0
20260901102055 74 0 0.0 0.0 0.00 0.00 0.00 75 1015.8
20260901101610 74 0 0.0 0.0 0.00 0.00 0.00 74 1015.9
20260901101055 74 0 0.0 0.0 0.00 0.00 0.00 74 1016.1
20260901100555 75 0 0.0 0.0 0.00 0.00 0.00 74 1016.0
20260901100101 75 0 0.0 0.0 0.00 0.00 0.00 73 1016.0
20260901095555 75 0 0.0 0.0 0.00 0.00 0.00 73 1016.0
20260901095055 76 0 0.0 0.0 0.00 0.00 0.00 72 1015.9
20260901094605 76 0 0.0 0.0 0.00 0.00 0.00 71 1015.9
20260901094058 76 0 0.0 0.0 0.00 0.00 0.00 70 1016.0
20260901093555 76 0 0.0 0.0 0.00 0.00 0.00 70 1016.0
20260901093110 77 0 0.0 0.0 0.00 0.00 0.00 70 1016.1
20260901092555 77 0 0.0 1.0 0.00 0.00 0.00 70 1016.0
20260901092055 77 0 0.0 1.0 0.00 0.00 0.00 69 1016.1
20260901091601 77 0 0.0 0.0 0.00 0.00 0.00 69 1016.0
20260901091055 77 0 0.0 0.0 0.00 0.00 0.00 69 1016.1
20260901090555 77 0 0.0 0.0 0.00 0.00 0.00 69 1016.1
20260901090059 77 0 0.0 1.0 0.00 0.00 0.00 69 1016.1
20260901085555 77 0 0.0 1.0 0.00 0.00 0.00 69 1015.9
20260901085054 76 0 0.0 0.0 0.00 0.00 0.00 69 1016.2
20260901084608 76 0 0.0 0.0 0.00 0.00 0.00 70 1015.9
20260901084055 76 0 0.0 0.0 0.00 0.00 0.00 70 1016.0
20260901083555 76 0 0.0 0.0 0.00 0.00 0.00 70 1015.9
20260901083108 76 0 0.0 0.0 0.00 0.00 0.00 70 1015.9
20260901082555 76 0 0.0 0.0 0.00 0.00 0.00 70 1016.0
20260901082055 76 0 0.0 0.0 0.00 0.00 0.00 70 1015.9
20260901081603 75 0 0.0 0.0 0.00 0.00 0.00 71 1015.9
20260901081054 76 0 0.0 0.0 0.00 0.00 0.00 70 1015.9
20260901080555 76 0 0.0 0.0 0.00 0.00 0.00 70 1015.6
20260901080207 76 0 0.0 0.0 0.00 0.00 0.00 71 1015.7
20260901075557 76 0 0.0 0.0 0.00 0.00 0.00 71 1015.8
20260901075055 75 0 0.0 0.0 0.00 0.00 0.00 71 1015.8
20260901074608 75 0 0.0 0.0 0.00 0.00 0.00 71 1015.5
20260901074055 75 0 0.0 0.0 0.00 0.00 0.00 70 1015.6
20260901073556 75 0 0.0 0.0 0.00 0.00 0.00 70 1015.6
20260901073105 75 0 0.0 0.0 0.00 0.00 0.00 69 1015.7
20260901072555 75 0 0.0 0.0 0.00 0.00 0.00 70 1015.6
20260901072058 75 0 0.0 0.0 0.00 0.00 0.00 71 1015.6
20260901071609 75 0 0.0 0.0 0.00 0.00 0.00 71 1015.6
20260901071055 75 0 0.0 0.0 0.00 0.00 0.00 71 1015.6
20260901070555 75 0 0.0 0.0 0.00 0.00 0.00 70 1015.4
20260901070132 75 0 0.0 0.0 0.00 0.00 0.00 70 1015.5
20260901065555 75 0 0.0 0.0 0.00 0.00 0.00 70 1015.5
20260901065055 75 0 0.0 0.0 0.00 0.00 0.00 68 1015.4
20260901064611 76 0 0.0 0.0 0.00 0.00 0.00 69 1015.3
20260901064055 76 0 0.0 0.0 0.00 0.00 0.00 69 1015.2
20260901063555 76 0 0.0 0.0 0.00 0.00 0.00 69 1015.3
20260901063105 76 0 0.0 0.0 0.00 0.00 0.00 69 1015.4
20260901062556 76 0 0.0 0.0 0.00 0.00 0.00 68 1015.4
20260901062056 76 0 0.0 0.0 0.00 0.00 0.00 67 1015.3
20260901061610 77 0 0.0 0.0 0.00 0.00 0.00 67 1015.2
20260901061057 77 0 0.0 0.0 0.00 0.00 0.00 66 1015.2
20260901060556 77 0 0.0 0.0 0.00 0.00 0.00 66 1015.1
20260901060101 78 0 0.0 0.0 0.00 0.00 0.00 65 1015.0
20260901055556 78 0 0.0 0.0 0.00 0.00 0.00 63 1014.8
20260901055055 78 0 0.0 0.0 0.00 0.00 0.00 63 1014.7
20260901054608 78 0 0.0 0.0 0.00 0.00 0.00 63 1014.8
20260901054056 78 0 0.0 0.0 0.00 0.00 0.00 63 1014.7
20260901053556 78 0 0.0 0.0 0.00 0.00 0.00 63 1014.7
20260901053110 78 0 0.0 0.0 0.00 0.00 0.00 63 1014.7
20260901052557 79 0 0.0 0.0 0.00 0.00 0.00 63 1014.6
20260901052058 79 0 0.0 0.0 0.00 0.00 0.00 62 1014.6
20260901051601 79 0 0.0 0.0 0.00 0.00 0.00 62 1014.7